COSMOS 1691 DEB, 43316

Orbit data source: Space-Track

COSMOS 1691 DEB, 43316 is space debris in LEO originally from a launch on Wed, 09 Oct 1985 UTC launched from the Plesetsk Missile And Space Complex (PKMTR). Debris objects in space refer to the collection of defunct objects orbiting the Earth. Examples of debris include non-operational satellites, rocket bodies, and fragments generated from explosions, collisions, or faulty payload assembly.

Loading next visibility...
Identifier
43316, 1985-094AA
Orbit
LEO
Country
Flag of CISCIS
Related business
Manufacturer
Unknown
Mission
Spacecraft
Bus & Motor
Unknown
Mass
Unknown
Launch date (UTC)
1985-10-09 (41 years ago)
Launch vehicle
Unknown
Launch site
Plesetsk Missile And Space Complex (PKMTR)
Object type
Payload
Rocket body
Debris
Shape & HBR
Unknown shape, 0.1 m
Radar Cross Section
Small (<0.1 m²)

Expand to show TLE details & history
Last TLE update: 5 days ago

TLE from 5 days ago
0 COSMOS 1691 DEB
1 43316U 85094AA  26123.04779469  .00000403  00000-0  19413-2 0  9990
2 43316  82.6029 233.7300 0016349 156.0748 204.1112 12.71284318 69821
Epoch: 2026-05-03T01:08Z
TLE epoch observation values (Epoch: 2026-05-03T01:08:49.461Z)
Latitude
0.00004°
Longitude
-4.43303°
Altitude
1,391.034 km
Speed
7.159 km/s
True Right ascension
15h 34m 55s
True Declination
0° 00' 00"
Sunlit
Object was in full shadow at epoch
Visualization orbit readout
Latitude
Unknown
Longitude
Unknown
Altitude
Unknown
Speed
Unknown
Apparent Right ascension
Unknown
Apparent Declination
Unknown
Sunlit
N/A
Visualization observer readout
Local Sidereal Time
04:30:44
Azimuth
Unknown
Elevation
Unknown
Doppler factor
Unknown
Orbital elements
Apogee altitude
1,386.694 km
Perigee altitude
1,361.346 km
Semi-major axis
7,752.157 km
Eccentricity
0.00163
Inclination
82.6029°
RAAN
233.73°
Arg. of periapsis
156.0748°
True anomaly
204.03481°
Mean anomaly
204.1112°
Eccentric anomaly
204.07299°
Mean motion
3.17987 °/min
Orbital period
113.21 mins
BSTAR
0.0019413
Loading maneuver chart data...
Computing Atmospheric mass density...
Loading historical data...
Loading historical data...
Loading historical data...
Loading historical data...
Loading historical data...
Loading historical data...
Loading historical data...

Documentation

Showing up to 5 results
|